Springfield, VT

4:57 AM EST on February 21, 2018 (GMT -0500)
Hartness State

Weather History for KVSF - February, 2014

Change the Weather History Date:

Friday, February 14, 2014

  Actual Average Record
Temperature  
Mean Temperature 27 °F 23 °F  
Max Temperature 31 °F 33 °F 50 °F (2011)
Min Temperature 22 °F 13 °F -18 °F (2003)
Degree Days  
Heating Degree Days 38 42  
Month to date heating degree days 661 611  
Since 1 July heating degree days 5086 4883  
Cooling Degree Days 0 0  
Month to date cooling degree days 0  
Year to date cooling degree days 0  
Moisture  
Dew Point 21 °F    
Average Humidity 75    
Maximum Humidity 92    
Minimum Humidity 58    
Precipitation  
Precipitation 0.00 in 0.11 in 1.12 in (2007)
Month to date precipitation 0.42 1.37  
Year to date precipitation 2.71 4.29  
Sea Level Pressure  
Sea Level Pressure 29.15 in    
Wind  
Wind Speed 8 mph (WNW)    
Max Wind Speed 22 mph    
Max Gust Speed 33 mph    
Visibility 3 miles    
Events Fog , Snow , Thunderstorm    
T = Trace of Precipitation, MM = Missing Value Source: NWS Daily Summary

Daily Weather History Graph

Daily Weather History Graph

Search for Another Location

Airport or City:

Trip Planner

Search our weather history database for the weather conditions in past years. The results will help you decide how hot, cold, wet, or windy it might be!

Date:

Astronomy

Feb. 14, 2014 Rise Set
Actual Time 6:49 AM EST 5:19 PM EST
Civil Twilight 6:20 AM EST 5:48 PM EST
Nautical Twilight 5:46 AM EST 6:22 PM EST
Astronomical Twilight 5:13 AM EST 6:55 PM EST
Moon 5:22 PM EST (2/14) 6:14 AM EST (2/14)
Length of Visible Light 11h 28m
Length of Day
10h 29m
Full, 100% of the Moon is Illuminated
Feb 14
Full
Feb 14
Full
Feb 22
Last Quarter
Mar 1
New
Mar 8
First Quarter

Hourly Weather History & Observations

Time (EST) Temp. Windchill Dew Point Humidity Pressure Visibility Wind Dir Wind Speed Gust Speed Precip Events Conditions
12:54 AM 28.0 °F 22.8 °F 26.1 °F 92% 29.11 in 1.8 mi Variable 4.6 mph - 0.00 in Snow Light Snow
1:12 AM 28.0 °F 20.8 °F 26.1 °F 92% 29.04 in 1.0 mi North 6.9 mph 18.4 mph 0.00 in Snow , Thunderstorm Light Thunderstorms and Snow
1:15 AM 28.0 °F 21.7 °F 26.1 °F 92% 29.04 in 0.8 mi North 5.8 mph 18.4 mph 0.00 in Snow , Thunderstorm Light Thunderstorms and Snow
1:27 AM 28.0 °F 20.8 °F 26.1 °F 92% 29.04 in 0.5 mi North 6.9 mph - 0.00 in Fog , Snow Snow
1:39 AM 28.0 °F 21.7 °F 26.1 °F 92% 29.04 in 0.5 mi Variable 5.8 mph - 0.00 in Fog , Snow Snow
1:54 AM 28.0 °F 20.0 °F 26.1 °F 92% 29.05 in 0.2 mi NNE 8.1 mph - 0.00 in Fog , Snow Heavy Snow
2:09 AM 28.0 °F 22.8 °F 26.1 °F 92% 29.02 in 0.5 mi Variable 4.6 mph - 0.00 in Fog , Snow Snow
2:24 AM 28.0 °F 24.2 °F 27.0 °F 96% 29.01 in 0.2 mi NE 3.5 mph - 0.00 in Fog , Snow Heavy Snow
2:44 AM 28.0 °F 22.8 °F 27.0 °F 96% 28.99 in 0.2 mi ENE 4.6 mph - 0.00 in Fog , Snow Heavy Snow
2:54 AM 28.0 °F 24.2 °F 27.0 °F 96% 28.99 in 0.2 mi NNE 3.5 mph - 0.00 in Fog , Snow Heavy Snow
3:34 AM 28.0 °F 24.2 °F 27.0 °F 96% 28.93 in 0.5 mi ENE 3.5 mph - 0.00 in Fog , Snow Snow
3:46 AM 28.9 °F 23.9 °F 27.0 °F 92% 28.93 in 0.8 mi Variable 4.6 mph - 0.00 in Snow Light Snow
3:54 AM 27.0 °F 19.5 °F 25.0 °F 92% 28.97 in 0.8 mi WSW 6.9 mph - 0.00 in Snow Light Snow
4:12 AM 25.0 °F 15.5 °F 23.0 °F 92% 28.96 in 0.2 mi West 9.2 mph - 0.00 in Fog , Snow Heavy Snow
4:31 AM 24.1 °F 17.0 °F 21.9 °F 91% 28.97 in 0.2 mi WNW 5.8 mph - 0.00 in Fog , Snow Heavy Snow
4:52 AM 24.8 °F 19.1 °F 21.2 °F 86% 28.97 in 0.5 mi WNW 4.6 mph - 0.00 in Fog , Snow Snow
4:54 AM 24.1 °F 19.7 °F 21.9 °F 91% 28.99 in 0.5 mi Variable 3.5 mph - 0.00 in Fog , Snow Snow
5:06 AM 23.0 °F - 19.9 °F 88% 28.97 in 0.5 mi Calm Calm - 0.00 in Fog , Snow Snow
5:54 AM 21.9 °F - 19.9 °F 92% 28.99 in 0.5 mi Calm Calm - 0.00 in Fog , Snow Snow
6:36 AM 21.9 °F - 19.0 °F 89% 28.97 in 1.0 mi Calm Calm - 0.00 in Snow Light Snow
6:51 AM 23.0 °F 15.8 °F 17.6 °F 80% 28.97 in 2.0 mi Variable 5.8 mph - 0.00 in Snow Light Snow
6:54 AM 23.0 °F 17.0 °F 17.1 °F 78% 29.00 in 2.0 mi Variable 4.6 mph - 0.00 in Snow Light Snow
7:17 AM 23.0 °F - 17.1 °F 78% 28.98 in 3.0 mi Calm Calm - 0.00 in Snow Light Snow
7:29 AM 23.0 °F 15.8 °F 17.1 °F 78% 28.98 in 1.8 mi Variable 5.8 mph - 0.00 in Snow Light Snow
7:40 AM 23.0 °F 11.7 °F 17.1 °F 78% 28.99 in 1.0 mi West 11.5 mph - 0.00 in Snow Light Snow
7:54 AM 23.0 °F 10.6 °F 17.1 °F 78% 29.02 in 1.5 mi WNW 13.8 mph 26.5 mph 0.00 in Snow Light Snow
8:06 AM 23.0 °F 10.1 °F 17.1 °F 78% 29.00 in 2.0 mi WNW 15.0 mph 20.7 mph 0.00 in Snow Light Snow
8:14 AM 23.0 °F 9.2 °F 17.1 °F 78% 29.01 in 2.0 mi WNW 17.3 mph 26.5 mph 0.00 in Snow Light Snow
8:37 AM 24.1 °F 11.0 °F 16.0 °F 71% 29.01 in 3.0 mi WNW 16.1 mph 25.3 mph 0.00 in   Haze
8:44 AM 24.1 °F 9.8 °F 16.0 °F 71% 29.02 in 1.8 mi West 19.6 mph 28.8 mph 0.00 in Snow Light Snow
8:54 AM 24.1 °F 9.8 °F 16.0 °F 71% 29.05 in 1.2 mi WNW 19.6 mph 33.4 mph 0.00 in Snow Light Snow
9:25 AM 24.1 °F 12.5 °F 17.1 °F 75% 29.05 in 3.0 mi WNW 12.7 mph 32.2 mph 0.00 in Snow Light Snow
9:36 AM 24.1 °F 12.0 °F 17.1 °F 75% 29.05 in 3.0 mi West 13.8 mph 25.3 mph 0.00 in Snow Light Snow
9:49 AM 24.8 °F 16.9 °F 17.6 °F 74% 29.06 in 2.0 mi NW 6.9 mph 28.8 mph 0.00 in Snow Light Snow
9:54 AM 25.0 °F 15.5 °F 18.0 °F 75% 29.08 in 2.5 mi WNW 9.2 mph 18.4 mph 0.00 in Snow Light Snow
10:02 AM 25.0 °F 15.5 °F 18.0 °F 75% 29.06 in 3.0 mi West 9.2 mph 16.1 mph 0.00 in Snow Light Snow
10:10 AM 25.0 °F 13.1 °F 18.0 °F 75% 29.06 in 2.0 mi WNW 13.8 mph 21.9 mph 0.00 in Snow Light Snow
10:17 AM 25.0 °F 14.2 °F 19.0 °F 78% 29.07 in 1.2 mi WNW 11.5 mph 21.9 mph 0.00 in Snow Light Snow
10:54 AM 26.1 °F 17.6 °F 19.0 °F 75% 29.11 in 1.2 mi NW 8.1 mph 25.3 mph 0.00 in Snow Light Snow
11:54 AM 27.0 °F 18.7 °F 19.0 °F 72% 29.16 in 1.2 mi WNW 8.1 mph 28.8 mph 0.00 in Snow Light Snow
12:17 PM 27.0 °F 19.5 °F 21.0 °F 78% 29.15 in 0.8 mi Variable 6.9 mph 20.7 mph 0.00 in Snow Light Snow
12:25 PM 27.0 °F 23.0 °F 21.0 °F 78% 29.16 in 1.8 mi Variable 3.5 mph 18.4 mph 0.00 in Snow Light Snow
12:30 PM 27.0 °F 18.7 °F 19.9 °F 75% 29.16 in 3.0 mi West 8.1 mph - 0.00 in Snow Light Snow
12:54 PM 28.0 °F 18.1 °F 19.0 °F 69% 29.21 in 8.0 mi WNW 11.5 mph 21.9 mph 0.00 in   Overcast
1:25 PM 28.9 °F 16.1 °F 19.9 °F 69% 29.21 in 2.0 mi WNW 19.6 mph 28.8 mph 0.00 in Snow Light Snow
1:33 PM 28.9 °F 18.6 °F 19.9 °F 69% 29.21 in 1.8 mi WNW 12.7 mph 28.8 mph 0.00 in Snow Light Snow
1:37 PM 28.9 °F 20.4 °F 19.9 °F 69% 29.22 in 3.0 mi WNW 9.2 mph 24.2 mph 0.00 in Snow Light Snow
1:54 PM 30.0 °F 17.9 °F 19.9 °F 66% 29.25 in 6.0 mi West 18.4 mph 31.1 mph 0.00 in Snow Light Snow
2:36 PM 28.9 °F - 23.0 °F 78% 29.26 in 2.5 mi Calm Calm - 0.00 in Snow Light Snow
2:54 PM 28.9 °F - 23.0 °F 78% 29.30 in 2.0 mi Calm Calm - 0.00 in Snow Light Snow
2:56 PM 28.9 °F - 24.1 °F 82% 29.28 in 1.8 mi Calm Calm - 0.00 in Snow Light Snow
3:07 PM 28.9 °F - 24.1 °F 82% 29.28 in 1.8 mi Calm Calm - 0.00 in Snow Light Snow
3:24 PM 28.9 °F 23.9 °F 23.0 °F 78% 29.30 in 3.0 mi WSW 4.6 mph - 0.00 in Snow Light Snow
3:41 PM 30.0 °F 23.2 °F 21.9 °F 72% 29.31 in 10.0 mi Variable 6.9 mph - 0.00 in   Overcast
3:54 PM 30.0 °F 21.1 °F 21.9 °F 72% 29.35 in 6.0 mi SW 10.4 mph 19.6 mph 0.00 in Snow Light Snow
4:54 PM 30.0 °F 23.2 °F 23.0 °F 75% 29.41 in 4.0 mi Variable 6.9 mph 20.7 mph 0.00 in Snow Light Snow
5:54 PM 30.0 °F 21.7 °F 23.0 °F 75% 29.47 in 4.0 mi West 9.2 mph 17.3 mph 0.00 in Snow Light Snow
6:54 PM 30.0 °F 23.2 °F 19.0 °F 64% 29.51 in 10.0 mi Variable 6.9 mph 20.7 mph 0.00 in   Overcast
8:54 PM 30.0 °F 25.2 °F 18.0 °F 61% 29.62 in 10.0 mi Variable 4.6 mph - N/A   Partly Cloudy
9:54 PM 28.0 °F 17.5 °F 18.0 °F 66% 29.67 in 10.0 mi West 12.7 mph - N/A   Clear
10:29 PM 28.0 °F - 18.0 °F 66% 29.64 in 10.0 mi Calm Calm - N/A   Mostly Cloudy
10:36 PM 26.1 °F 18.4 °F 17.1 °F 69% 29.65 in 10.0 mi SE 6.9 mph - N/A   Mostly Cloudy
10:54 PM 28.9 °F 25.2 °F 18.0 °F 64% 29.69 in 10.0 mi Variable 3.5 mph - N/A   Overcast
11:54 PM 26.1 °F 19.4 °F 18.0 °F 71% 29.71 in 10.0 mi SE 5.8 mph - N/A   Mostly Cloudy